Regional Weather Roundup
Issued by NWS

Home | Current Version | Previous Version | Text Only | Print | Product List | Glossary On
Versions: 1 2 3 4 5 6 7 8 9 10 11 12 13 14 15 16 17 18 19 20 21 22 23 24 25 26 27 28 29 30 31 32 33 34 35 36 37 38 39 40 41 42 43 44 45 46 47 48 49 50
000
ASUS44 KFWD 170315
RWRTX
NORTH TEXAS HOURLY WEATHER ROUNDUP
NATIONAL WEATHER SERVICE FORT WORTH TX
1000 PM CDT TUE SEP 16 2014

NOTE: "FAIR" INDICATES FEW OR NO CLOUDS BELOW 12,000 FEET WITH NO
SIGNIFICANT WEATHER AND/OR OBSTRUCTIONS TO VISIBILITY.

TXZ118-119-170400-
DALLAS/FORT WORTH METROPLEX

CITY           SKY/WX    TMP DP  RH WIND       PRES   REMARKS
DFW AIRPORT    PTCLDY    83  67  58 SE6       30.01R
DALLAS LOVE    MOCLDY    84  68  58 SE10      30.01R
FTW MEACHAM    PTCLDY    82  68  62 S7        30.01R
DAL-EXECUTIVE  PTCLDY    83  68  60 SE6       30.01R
FTW-ALLIANCE   MOCLDY    79  66  64 SE5       30.00R
FTW-NAS-JRB    PTCLDY    87  66  49 SE7       30.05R
FTW-SPINKS     PTCLDY    80  69  69 CALM      30.04R
ARLINGTON      PTCLDY    81  68  64 SE6       30.01R
GRAND PRAIRIE  PTCLDY    82  66  59 SE5       30.03R
ADDISON        MOCLDY    84  66  54 SE7       30.02R
MESQUITE       MOCLDY    81  66  60 SE3       30.02
LANCASTER      PTCLDY    80  67  64 SE5       30.02R
$$

TXZ091>094-102>105-117-120-121-131>134-170400-
NORTH CENTRAL TEXAS

CITY           SKY/WX    TMP DP  RH WIND       PRES   REMARKS
SHRMAN/DENISON MOCLDY    79  70  74 E5        30.03R
GAINESVILLE    CLOUDY    77  70  78 E3        30.05R
BOWIE          CLOUDY    76  70  81 CALM      30.03R
BRIDGEPORT     PTCLDY    80  64  58 SE5       30.04R
DECATUR        PTCLDY    78  65  64 E3        30.04R
DENTON         MOCLDY    80  66  62 CALM      30.01R
MCKINNEY       CLOUDY    80  69  69 E5        30.02R
GREENVILLE     PTCLDY    77  68  73 CALM      30.03R
ROCKWALL       MOCLDY    81  70  69 SE5       30.01R
TERRELL        PTCLDY    82  69  64 SE5       30.02R
WAXAHACHIE     PTCLDY    82  67  60 SE5       30.03R
CLEBURNE       MOCLDY    81  73  78 SE7       30.05R
GRANBURY       CLOUDY    84  69  59 SE7       30.04R
$$

TXZ083>090-098>101-113>116-127>130-139>142-154-155-170400-
WESTERN NORTH TEXAS

CITY           SKY/WX    TMP DP  RH WIND       PRES   REMARKS
WICHITA FALLS  CLOUDY    77  69  76 S6        30.01R
WF-KICKAPOO    CLOUDY    79  67  67 SE5       30.03R
VERNON         CLOUDY    80  67  65 S6        30.03S
ABILENE        CLOUDY    81  65  58 E5        30.06R
ABILENE-DYESS  CLOUDY    79  66  64 N5        30.05R
BRECKENRIDGE   MOCLDY    82  64  54 SE6       30.03R
GRAHAM         MOCLDY    81  66  61 E3        30.01R
MINERAL WELLS  PTCLDY    79  67  66 SE7       30.01R
STEPHENVILLE   CLOUDY    81  66  61 SE6       30.07R
COMANCHE         N/A     80  67  66 SE9       30.05R
BROWNWOOD      MOCLDY    81  66  61 E8        30.05R
COLEMAN        MOCLDY    79  62  54 NE5       30.06R
BRADY            N/A     79  68  69 E9        30.06R
$$

TXZ143>147-156>162-174-175-170400-
CENTRAL TEXAS

CITY           SKY/WX    TMP DP  RH WIND       PRES   REMARKS
WACO           MOCLDY    80  72  76 S20G26    30.03R
WACO-TSTC      CLEAR     81  72  74 CALM      30.03R
WACO-MCGREGOR  PTCLDY    79  68  69 S16G22    30.05R
HILLSBORO      MOCLDY    81  70  70 E7        30.03R
CORSICANA      MOCLDY    82  72  71 SE5       30.03R
MEXIA          PTCLDY    77  71  82 S6        30.04R
HEARNE         LGT RAIN  76  74  96 CALM      30.03S
CAMERON        CLOUDY    75  74  96 E3        30.03S
TEMPLE         MOCLDY    77  68  73 SE12      30.04R
KILLEEN        MOCLDY    81  72  74 SE12      30.02S
KILLEEN-SKYLRK MOCLDY    75  68  78 SE9       30.05R
FORT HOOD      MOCLDY    78  72  81 SE9       30.05R
GATESVILLE     PTCLDY    81  72  74 SE7       30.06R
HAMILTON       CLOUDY    79  68  68 SE7       30.06R
LAMPASAS       PTCLDY    78  72  81 SE6       30.05R
$$

TXZ095>097-106>112-122>126-135>138-148>153-164>167-170400-
EAST TEXAS

CITY           SKY/WX    TMP DP  RH WIND       PRES   REMARKS
PARIS          MOCLDY    75  66  73 E5        30.04R
SULPHUR SPRNGS PTCLDY    79  69  72 SE3       30.05R
MOUNT PLEASANT PTCLDY    76  73  90 CALM      30.04R
GILMER         CLEAR     79  72  78 CALM      30.04R
MINEOLA        PTCLDY    77  73  88 CALM      30.03R
TYLER          MOCLDY    81  72  74 CALM      30.02R
LONGVIEW       PTCLDY    79  69  71 E3        30.02R
MARSHALL       PTCLDY    78  73  82 CALM      30.04S
ATHENS         PTCLDY    77  70  78 CALM      30.01R
PALESTINE      PTCLDY    78  73  83 S3        30.05R
JACKSONVILLE   PTCLDY    77  72  83 S5        30.06S
HENDERSON      MOCLDY    76  74  92 CALM      30.04R
NACOGDOCHES    PTCLDY    73  68  83 CALM      30.04S
LUFKIN         MOCLDY    77  73  87 CALM      30.03S
$$

SUPPLEMENTAL OBSERVATIONS (CENTRAL)

CITY           SKY/WX    TMP DP  RH WIND       PRES   REMARKS
LAKE TEXOMA      N/A     77  72  83 SE3         N/A
CADDO GRASSLND   N/A     73  70  88 S2          N/A
PAT MAYSE LAKE   N/A     79  70  73 E3          N/A
ATHENS           N/A     81  72  74 E1          N/A
PALESTINE        N/A     77  70  78 SW1G9       N/A
LAKE LIMESTONE   N/A     75  70  83 SE1         N/A
MCGREGOR         N/A     79  72  78 S13         N/A
TEMPLE           N/A     75  70  83 SE8         N/A
$$

SUPPLEMENTAL OBSERVATIONS (WEST)

CITY           SKY/WX    TMP DP  RH WIND       PRES   REMARKS
MILLERS CREEK    N/A     77  66  69 SE3         N/A
POSSUM KINGDOM   N/A     82  64  54 SE5         N/A
LBJ GRASSLAND    N/A     81  66  61 E5          N/A
GRANBURY         N/A     82  66  57 SE8         N/A
COMANCHE         N/A     81  68  65 SE9         N/A
HAMBY            N/A     77  64  65 E1          N/A
COLORADO BEND    N/A     77  68  73 S7          N/A
$$

SUPPLEMENTAL OBSERVATIONS (EAST)

CITY           SKY/WX    TMP DP  RH WIND       PRES   REMARKS
CLARKSVILLE      N/A     73  70  88 CALM        N/A
TEXARKANA        N/A     72  68  88 CALM        N/A
LINDEN           N/A     75  70  83 CALM        N/A
CADDO LAKE       N/A     72  70  94 CALM        N/A
GILMER           N/A     77  72  83 CALM        N/A
HENDERSON        N/A     75  70  83 CALM        N/A
LUFKIN           N/A     75  72  88 MISG        N/A
N SABINE NF      N/A     79  73  83 MISG        N/A
S SABINE NF      N/A     75  70  83 SE2         N/A
$$

SUPPLEMENTAL OBSERVATIONS ARE A COLLECTION OF AUTOMATED INSTRUMENTS
THAT ARE MAINTAINED BY A VARIETY OF FEDERAL AND STATE AGENCIES.
CERTAIN ELEMENTS...SUCH AS HUMIDITY VALUES AND SUSTAINED WIND
SPEEDS...MAY BE APPROXIMATED.




USA.gov is the U.S. government's official web portal to all federal, state and local government web resources and services.